FLOCK 4Y 32

导读

FLOCK 4Y 32是美国Planet公司Flock 4Y星群中的一颗SuperDove系列遥感卫星,于2023年1月3日搭乘SpaceX猎鹰9号火箭,在佛罗里达州卡纳维拉尔角发射升空,属于Transporter-6拼车任务的36颗卫星之一。该卫星配备多光谱传感器,将加入Planet在轨观测舰队,每日对地球成像,为农业、环境监测等领域提供数据服务,助力全球可持续发展与决策支持。

基本信息
目录编号:
55021
目录名称:
FLOCK 4Y 32
国际标识:
2023-001N
轨道中心:
EARTH
卫星名称:
FLOCK 4Y 32
卫星全名:
--
卫星状态:
已陨落 最后检测时间 2025-07-12
发射日期:
2023-01-03 UTC
国别 :
美国 (US)
星等 :
--
该卫星已列入 空间交会检测服务 Space Conjunction Data Service (SCDS) ,当前飞行风险评估等级: 无高风险
轨道信息
数据来源 国际轨道数据
星历时间: 2025-07-07T05:58:50+0800
轨道信息已过期431天
半长轴: 6560.151km
偏心率: 0.0016319
轨道倾角: 97.343°
近地点辐角 267.396°
升交点赤经 264.594°
平近点角 92.547°
近地点: 171.31km
远地点: 192.722km
周期: 88.131分钟
每日圈数: 16.339247
详细信息
使用方式:
暂无
与全量物体交会距离演化趋势
与全量物体交会风险概率演化趋势